SCP
0 0 0 0 0 0 0 0 0 0 0 0 0 0 -0 0 0 0 0 0 0 0 0 0 0 0 0 0 0 0 0 0 0 0 0 0 0 0 0 0 0 0 0 0
0 0 0 0 0 0 0 0 0 0 0 0 0 0 0 0 0 0 0 0 0 0 0 0 0 0 0 0 0 0 0 0 0 0 0 0 0 0 0 0 0 0 0 0
0 0 0 0 0 0 0 0 0 0 0 0 0 0 0 0 0 0 0 0 0 0 0 0 0 0 0 0 0 0 0 0 0 0 0 0 0 0 0 0 0 0 0 0
0 0 0 0 0 0 0 0 0 0 0 0 0 -0 0 0 0 0 0 0 0 0 0 0 0 0 0 0 0 0 0 0 0 0 0 0 0 0 0 0 0 0 0 0
0 0 0 0 0 0 0 0 0 0 0 0 0 0 -0 0 0 0 0 0 0 0 0 0 0 0 0 0 0 0 0 0 0 0 0 0 0 0 0 0 0 0 0 0
0 0 0 0 0 0 0 0 0 0 0 0 0 0 -0 0 0 0 0 0 0 0 0 0 0 0 0 0 0 0 0 0 0 0 0 0 0 0 0 0 0 0 0 0
0 0 0 0 0 0 0 0 0 0 0 0 0 0 0 0 0 0 0 0 0 0 0 0 0 0 0 0 0 0 0 0 0 0 0 0 0 0 0 0 0 0 0 0
0 0 0 0 0 0 0 0 0 0 0 0 0 0 0 0 -0 -0 0 0 0 0 0 0 0 0 0 0 0 0 0 0 0 0 0 0 0 0 0 0 0 0 0 0
0 0 0 0 0 0 0 0 0 0 0 0 0 0 0 0 0 0 0 0 0 0 0 0 0 0 0 0 0 0 0 0 0 0 0 0 0 0 0 0 0 0 0 0
0 0 0 0 0 0 0 0 0 0 0 0 0 0 0 0 0 0 0 -0 -0 0 0 0 0 0 0 0 0 0 0 0 0 0 0 0 0 0 0 0 0 0 0 0
0 0 0 0 0 0 0 0 0 0 0 0 0 0 -0 0 0 0 0 0 0 0 0 0 0 0 0 0 0 0 0 0 0 0 0 0 0 0 0 0 0 0 0 0
0 0 0 0 0 0 0 0 0 0 0 0 0 0 0 -0 0 0 0 0 0 0 0 0 0 0 0 0 0 0 0 0 0 0 0 0 0 0 0 0 0 0 0 0
0 0 0 0 0 0 0 0 0 0 0 0 0 0 0 0 0 0 0 0 0 0 0 0 0 0 0 0 0 0 0 0 0 0 0 0 0 0 0 0 0 0 0 0
0 0 0 0 0 0 0 0 0 0 0 0 0 0 0 0 0 0 0 0 0 -0 0 0 0 0 0 0 0 0 0 0 0 0 0 0 0 0 0 0 0 0 0 0
0 0 0 0 0 0 0 0 0 0 0 0 0 0 0 0 0 0 0 0 0 0 0 0 0 0 0 0 -0 0 0 0 0 0 0 0 0 0 0 0 0 0 0 0
0 0 0 0 0 0 0 0 0 0 0 0 0 0 0 0 0 0 0 0 -0 0 0 0 0 0 0 -0 -0 0 0 0 0 0 0 0 0 0 0 0 0 0 0 0
0 0 0 0 0 0 0 0 0 0 0 0 0 0 0 0 0 0 0 0 0 0 0 0 0 0 -0 -0 0 0 0 0 0 0 0 0 0 0 0 0 0 0 0 0
0 0 0 0 0 0 0 0 0 0 0 0 0 0 0 0 0 0 0 0 0 0 0 0 0 0 0 0 0 0 0 0 0 0 0 0 0 0 0 0 0 0 0 0
0 0 0 0 0 0 0 0 0 0 0 0 0 0 0 0 0 0 0 0 0 0 0 0 0 0 0 0 0 0 0 0 0 0 0 0 0 0 0 0 0 0 0 0
0 0 0 0 0 0 -0 0 0 0 0 0 0 0 0 0 0 0 0 0 0 0 0 0 0 0 0 0 0 0 0 0 0 0 0 0 0 0 0 0 0 0 0 0
0 0 0 0 0 0 0 0 0 0 0 0 0 0 0 0 0 0 0 0 0 0 0 0 0 0 0 0 0 0 0 0 0 0 0 0 0 0 0 0 0 0 0 0
0 0 0 0 0 0 0 0 0 0 0 0 0 0 -0 0 0 0 0 0 0 0 0 0 0 0 0 0 0 0 0 0 0 0 0 0 0 0 0 0 0 0 0 0
0 0 0 0 0 0 0 0 0 0 0 0 0 0 0 0 -0 0 0 0 0 0 0 0 0 0 0 0 0 0 0 0 0 0 0 0 0 0 0 0 0 0 0 0
0 0 0 0 0 0 0 0 0 0 0 0 0 0 0 0 0 0 0 0 0 0 0 0 0 0 0 0 0 0 0 0 0 0 0 0 0 0 0 0 0 0 0 0
0 0 0 0 0 0 0 0 0 0 0 0 0 0 0 0 0 0 0 0 0 0 0 0 0 0 0 0 0 0 0 0 0 0 0 0 0 0 0 0 0 0 0 0
0 0 0 0 0 0 0 0 0 0 0 0 0 0 0 0 0 0 0 0 0 0 0 0 0 0 0 0 0 0 0 0 0 0 0 0 0 0 0 0 0 0 0 0
Wind_Speed_500mb
19 12 20 20 24 8 9 7 10 7 8 7 13 17 26 24 22 27 38 38 46 51 49 49 49 49 49 52 53 55 57 56 56 59 57 53 52 47 42 45 45 45 42 38
10 30 13 18 13 11 7 6 7 7 2 6 9 21 20 15 25 39 42 46 53 54 54 53 54 56 57 54 57 59 58 63 61 62 62 59 52 51 48 42 45 50 47 45
19 16 26 19 13 14 8 11 8 10 4 4 6 14 18 17 33 49 52 50 46 49 59 59 59 62 61 63 62 61 60 62 61 65 64 63 62 63 60 57 52 49 51 51
11 10 25 13 13 13 13 12 7 7 5 7 1 11 10 16 21 15 54 61 65 62 62 61 58 60 64 68 65 63 63 64 64 65 69 69 69 68 61 53 49 45 43 49
20 21 21 23 19 18 14 12 11 5 4 4 3 5 13 6 10 17 41 70 71 71 74 74 69 63 64 64 65 61 64 69 70 70 69 68 70 68 62 56 50 46 44 40
10 7 21 22 8 16 20 13 12 9 4 9 14 13 9 12 18 15 40 63 81 88 85 80 74 68 68 65 66 68 69 65 66 68 70 70 68 67 65 62 59 51 45 37
7 5 5 17 16 8 10 14 2 3 2 12 3 4 20 14 19 16 27 50 57 54 57 62 65 66 68 71 72 78 74 68 62 62 65 64 64 65 65 64 62 58 51 44
23 15 18 11 16 18 17 16 11 14 8 7 3 15 11 18 40 42 46 44 33 28 24 31 42 46 46 53 62 71 75 68 62 61 62 60 59 59 61 61 60 56 54 48
22 12 2 6 10 21 11 13 16 12 4 5 9 13 18 25 31 18 46 38 59 39 37 34 34 37 41 42 44 49 55 57 59 58 57 57 56 54 56 56 53 53 52 46
12 10 3 6 13 8 19 23 10 3 5 8 9 11 13 13 17 13 21 35 34 40 41 37 27 26 24 27 31 38 44 46 46 47 45 46 48 51 50 49 50 47 43 40
12 10 5 10 16 21 9 13 4 11 10 10 3 11 17 18 10 13 17 18 25 28 31 30 22 18 20 22 25 25 28 30 30 33 36 39 41 45 49 51 49 48 43 43
5 11 9 11 3 5 5 14 21 15 10 5 5 16 9 15 11 7 21 8 11 13 22 25 24 23 19 17 18 21 24 25 27 29 30 31 35 39 39 39 38 40 40 42
15 3 8 8 7 4 18 5 22 11 6 15 11 17 4 14 14 7 9 7 7 16 22 26 26 21 17 19 22 22 22 23 23 24 26 29 31 29 28 30 32 32 30 28
38 7 14 22 7 16 12 16 14 15 7 13 36 22 7 11 9 7 6 7 12 16 23 27 30 26 23 23 23 24 26 26 27 28 31 34 34 33 33 32 31 30 28 29
14 34 7 8 6 15 11 22 28 36 58 25 50 36 20 18 15 7 2 7 11 19 28 34 32 27 25 28 31 30 31 32 32 34 37 36 36 35 34 34 33 33 33 33
6 2 9 7 3 7 9 22 42 56 47 52 38 13 7 45 26 24 21 20 27 22 21 25 26 26 28 32 31 29 33 34 33 38 37 36 35 35 36 37 38 37 35 33
15 11 8 20 7 11 7 48 39 43 37 46 44 20 13 11 20 54 69 55 45 43 35 33 27 28 29 29 24 26 32 35 37 37 37 38 36 37 40 41 41 41 39 38
32 26 6 8 5 13 31 27 41 43 37 45 48 9 19 33 56 59 53 56 58 63 54 55 51 40 36 29 32 33 37 40 38 40 43 44 41 42 45 47 47 44 42 42
7 14 6 12 7 13 32 13 15 17 44 29 39 37 16 29 40 62 74 78 76 70 66 58 56 41 36 41 45 42 38 39 42 46 50 51 50 51 51 51 49 47 47 47
11 9 11 7 22 32 18 28 21 20 42 23 40 34 30 48 27 29 64 72 75 70 74 71 60 54 55 53 51 47 46 48 51 53 54 55 55 54 53 49 48 48 47 44
10 4 33 8 19 20 12 7 56 20 12 23 29 45 44 28 55 38 48 65 61 69 75 64 65 61 55 54 55 56 56 58 53 52 57 56 54 51 47 46 46 45 47 48
24 23 16 10 19 42 15 13 27 24 27 20 17 15 21 62 40 39 23 15 22 26 27 30 31 36 37 39 40 41 46 47 50 54 55 55 52 51 51 49 47 48 52 52
9 15 12 24 23 2 44 27 26 39 17 13 17 21 14 17 17 19 24 23 23 28 32 33 35 36 34 31 30 30 31 37 46 50 52 55 53 53 53 53 52 54 56 57
6 10 8 7 12 13 36 36 24 20 21 23 22 20 18 19 15 11 5 5 7 8 8 12 17 22 23 24 24 24 27 30 34 38 46 49 51 52 52 54 54 56 58 59
7 19 13 5 7 8 7 46 43 34 24 22 20 19 18 18 14 9 6 2 4 6 5 3 3 5 8 9 9 10 14 21 27 32 39 43 45 46 49 51 52 52 52 54
2 7 16 13 31 18 18 49 35 33 33 25 26 31 26 20 19 15 13 11 10 8 8 9 9 8 7 5 6 7 10 13 18 24 30 34 37 40 44 48 51 51 52 54
Wind_Direction_500mb
174 169 189 170 200 193 156 149 192 225 226 172 211 234 263 234 230 231 237 233 229 232 234 231 232 229 229 229 229 231 233 236 236 239 239 240 243 244 245 243 241 244 246 247
132 205 177 159 186 155 149 177 237 298 120 156 273 259 247 210 235 238 232 231 236 238 239 235 234 234 233 234 234 234 235 237 239 241 243 247 253 255 256 256 248 246 247 251
175 177 166 155 158 160 163 165 191 212 20 229 316 269 234 240 229 243 244 245 242 245 248 244 240 237 237 235 236 238 239 240 241 242 243 245 249 251 251 249 247 247 247 247
178 161 159 152 174 140 176 203 167 181 101 234 91 279 272 234 234 215 236 239 243 243 247 247 244 240 240 239 239 240 242 242 243 241 241 243 246 249 252 255 256 256 256 250
193 153 153 179 178 154 208 148 150 121 149 359 313 298 278 6 262 250 241 237 238 243 242 246 248 247 244 242 241 243 244 242 243 241 241 242 245 249 253 254 254 252 254 252
165 174 165 179 118 145 146 84 55 56 81 266 205 194 246 203 215 224 234 239 237 238 245 248 246 244 243 241 239 240 239 242 243 242 239 241 244 246 249 251 252 253 254 255
125 190 152 135 96 53 107 113 41 307 234 232 352 237 257 263 244 219 242 252 249 246 250 252 251 247 243 239 237 237 236 239 241 237 236 238 241 244 248 251 253 255 256 257
166 205 176 181 161 158 168 153 159 196 205 252 22 239 242 237 270 264 255 250 253 232 244 258 246 236 234 233 232 235 233 234 235 235 236 237 239 242 246 249 251 255 256 255
172 198 11 147 133 141 187 192 163 110 55 36 229 289 290 268 270 266 263 260 249 245 255 271 254 231 222 223 230 227 226 230 233 236 239 238 238 240 244 247 251 250 250 243
180 115 352 139 99 44 175 148 138 111 175 255 274 274 234 281 263 314 270 260 268 251 242 241 245 229 214 210 215 217 223 228 232 233 236 237 238 241 244 247 249 248 243 235
143 98 193 148 208 167 137 181 128 133 170 182 251 258 217 227 270 280 289 270 247 247 224 219 224 221 210 206 209 210 214 218 221 224 225 231 238 246 248 249 246 242 237 230
188 112 144 186 238 196 204 177 176 188 208 241 131 253 225 218 224 238 270 295 219 227 214 212 219 223 221 220 225 223 223 224 228 231 235 237 239 239 239 241 240 237 235 229
174 159 91 41 325 184 214 213 189 103 92 198 156 258 204 209 231 267 261 235 226 206 197 208 220 221 220 216 215 216 218 219 217 221 223 226 231 234 235 233 229 224 221 215
163 128 158 197 215 133 174 187 173 167 180 201 230 220 322 244 229 213 260 217 200 188 201 208 217 213 209 214 218 219 219 222 224 227 230 231 231 232 232 231 227 221 215 214
148 207 122 44 163 161 175 182 184 197 225 194 250 227 212 238 189 211 243 213 210 200 211 212 212 212 215 220 223 223 227 232 235 237 237 236 234 231 227 221 216 213 212 213
39 236 105 6 27 138 170 191 199 212 217 234 246 263 222 224 234 234 223 215 232 230 226 213 211 213 216 214 215 229 237 238 243 246 245 241 235 230 223 219 217 217 214 207
143 124 109 225 156 103 341 217 206 223 215 228 233 237 183 223 238 255 265 274 269 256 245 224 227 245 230 223 233 253 246 245 250 252 245 239 236 229 222 218 218 212 208 213
180 180 131 161 103 199 249 165 203 214 219 223 245 198 191 211 233 239 240 247 258 262 254 246 257 259 237 235 249 258 249 244 246 248 242 238 236 229 223 221 216 209 209 208
143 160 131 150 211 297 271 196 146 167 251 224 235 240 207 228 246 250 243 246 250 254 260 265 273 263 262 268 267 264 257 251 246 243 241 239 236 232 227 220 214 212 211 212
73 161 182 135 211 224 292 188 159 116 266 184 212 221 211 199 231 235 235 239 242 247 258 262 262 264 265 266 268 265 261 256 248 244 243 238 235 232 227 222 218 217 217 216
153 132 206 178 220 261 245 174 155 190 237 192 207 224 223 205 225 244 239 241 246 253 253 255 258 260 259 257 260 261 258 256 255 245 241 237 232 230 228 224 224 221 216 211
172 175 197 199 227 250 158 120 176 229 221 208 190 178 216 235 231 229 232 230 222 222 230 239 250 256 257 256 257 260 261 255 248 242 236 233 229 227 223 221 220 214 215 216
208 187 177 199 211 310 178 194 209 231 194 145 152 134 142 152 199 205 219 222 236 244 249 251 252 252 254 255 256 260 253 245 241 238 231 228 225 224 222 223 220 217 218 219
230 164 190 126 191 198 209 206 219 194 170 167 169 149 145 164 162 157 172 172 188 219 238 250 253 255 258 257 257 253 248 237 235 233 227 225 224 223 222 222 223 224 223 218
181 151 163 278 359 26 243 206 210 188 173 166 153 153 163 162 158 170 163 116 73 81 85 120 175 223 228 229 232 232 225 220 215 217 222 225 227 227 228 229 230 228 227 226
270 172 197 214 198 183 196 203 191 180 171 160 159 148 145 141 144 140 133 117 104 97 88 89 95 95 97 120 151 166 180 200 212 219 224 228 231 232 231 231 230 225 222 222
Wind_Speed_850mb
19 12 20 20 24 8 9 7 10 7 8 7 13 17 26 24 22 27 38 38 46 51 49 49 49 49 49 52 53 55 57 56 56 59 57 53 52 47 42 45 45 45 42 38
10 30 13 18 13 11 7 6 7 7 2 6 9 21 20 15 25 39 42 46 53 54 54 53 54 56 57 54 57 59 58 63 61 62 62 59 52 51 48 42 45 50 47 45
19 16 26 19 13 14 8 11 8 10 4 4 6 14 18 17 33 49 52 50 46 49 59 59 59 62 61 63 62 61 60 62 61 65 64 63 62 63 60 57 52 49 51 51
11 10 25 13 13 13 13 12 7 7 5 7 1 11 10 16 21 15 54 61 65 62 62 61 58 60 64 68 65 63 63 64 64 65 69 69 69 68 61 53 49 45 43 49
20 21 21 23 19 18 14 12 11 5 4 4 3 5 13 6 10 17 41 70 71 71 74 74 69 63 64 64 65 61 64 69 70 70 69 68 70 68 62 56 50 46 44 40
10 7 21 22 8 16 20 13 12 9 4 9 14 13 9 12 18 15 40 63 81 88 85 80 74 68 68 65 66 68 69 65 66 68 70 70 68 67 65 62 59 51 45 37
7 5 5 17 16 8 10 14 2 3 2 12 3 4 20 14 19 16 27 50 57 54 57 62 65 66 68 71 72 78 74 68 62 62 65 64 64 65 65 64 62 58 51 44
23 15 18 11 16 18 17 16 11 14 8 7 3 15 11 18 40 42 46 44 33 28 24 31 42 46 46 53 62 71 75 68 62 61 62 60 59 59 61 61 60 56 54 48
22 12 2 6 10 21 11 13 16 12 4 5 9 13 18 25 31 18 46 38 59 39 37 34 34 37 41 42 44 49 55 57 59 58 57 57 56 54 56 56 53 53 52 46
12 10 3 6 13 8 19 23 10 3 5 8 9 11 13 13 17 13 21 35 34 40 41 37 27 26 24 27 31 38 44 46 46 47 45 46 48 51 50 49 50 47 43 40
12 10 5 10 16 21 9 13 4 11 10 10 3 11 17 18 10 13 17 18 25 28 31 30 22 18 20 22 25 25 28 30 30 33 36 39 41 45 49 51 49 48 43 43
5 11 9 11 3 5 5 14 21 15 10 5 5 16 9 15 11 7 21 8 11 13 22 25 24 23 19 17 18 21 24 25 27 29 30 31 35 39 39 39 38 40 40 42
15 3 8 8 7 4 18 5 22 11 6 15 11 17 4 14 14 7 9 7 7 16 22 26 26 21 17 19 22 22 22 23 23 24 26 29 31 29 28 30 32 32 30 28
38 7 14 22 7 16 12 16 14 15 7 13 36 22 7 11 9 7 6 7 12 16 23 27 30 26 23 23 23 24 26 26 27 28 31 34 34 33 33 32 31 30 28 29
14 34 7 8 6 15 11 22 28 36 58 25 50 36 20 18 15 7 2 7 11 19 28 34 32 27 25 28 31 30 31 32 32 34 37 36 36 35 34 34 33 33 33 33
6 2 9 7 3 7 9 22 42 56 47 52 38 13 7 45 26 24 21 20 27 22 21 25 26 26 28 32 31 29 33 34 33 38 37 36 35 35 36 37 38 37 35 33
15 11 8 20 7 11 7 48 39 43 37 46 44 20 13 11 20 54 69 55 45 43 35 33 27 28 29 29 24 26 32 35 37 37 37 38 36 37 40 41 41 41 39 38
32 26 6 8 5 13 31 27 41 43 37 45 48 9 19 33 56 59 53 56 58 63 54 55 51 40 36 29 32 33 37 40 38 40 43 44 41 42 45 47 47 44 42 42
7 14 6 12 7 13 32 13 15 17 44 29 39 37 16 29 40 62 74 78 76 70 66 58 56 41 36 41 45 42 38 39 42 46 50 51 50 51 51 51 49 47 47 47
11 9 11 7 22 32 18 28 21 20 42 23 40 34 30 48 27 29 64 72 75 70 74 71 60 54 55 53 51 47 46 48 51 53 54 55 55 54 53 49 48 48 47 44
10 4 33 8 19 20 12 7 56 20 12 23 29 45 44 28 55 38 48 65 61 69 75 64 65 61 55 54 55 56 56 58 53 52 57 56 54 51 47 46 46 45 47 48
24 23 16 10 19 42 15 13 27 24 27 20 17 15 21 62 40 39 23 15 22 26 27 30 31 36 37 39 40 41 46 47 50 54 55 55 52 51 51 49 47 48 52 52
9 15 12 24 23 2 44 27 26 39 17 13 17 21 14 17 17 19 24 23 23 28 32 33 35 36 34 31 30 30 31 37 46 50 52 55 53 53 53 53 52 54 56 57
6 10 8 7 12 13 36 36 24 20 21 23 22 20 18 19 15 11 5 5 7 8 8 12 17 22 23 24 24 24 27 30 34 38 46 49 51 52 52 54 54 56 58 59
7 19 13 5 7 8 7 46 43 34 24 22 20 19 18 18 14 9 6 2 4 6 5 3 3 5 8 9 9 10 14 21 27 32 39 43 45 46 49 51 52 52 52 54
2 7 16 13 31 18 18 49 35 33 33 25 26 31 26 20 19 15 13 11 10 8 8 9 9 8 7 5 6 7 10 13 18 24 30 34 37 40 44 48 51 51 52 54
Wind_Direction_850mb
174 169 189 170 200 193 156 149 192 225 226 172 211 234 263 234 230 231 237 233 229 232 234 231 232 229 229 229 229 231 233 236 236 239 239 240 243 244 245 243 241 244 246 247
132 205 177 159 186 155 149 177 237 298 120 156 273 259 247 210 235 238 232 231 236 238 239 235 234 234 233 234 234 234 235 237 239 241 243 247 253 255 256 256 248 246 247 251
175 177 166 155 158 160 163 165 191 212 20 229 316 269 234 240 229 243 244 245 242 245 248 244 240 237 237 235 236 238 239 240 241 242 243 245 249 251 251 249 247 247 247 247
178 161 159 152 174 140 176 203 167 181 101 234 91 279 272 234 234 215 236 239 243 243 247 247 244 240 240 239 239 240 242 242 243 241 241 243 246 249 252 255 256 256 256 250
193 153 153 179 178 154 208 148 150 121 149 359 313 298 278 6 262 250 241 237 238 243 242 246 248 247 244 242 241 243 244 242 243 241 241 242 245 249 253 254 254 252 254 252
165 174 165 179 118 145 146 84 55 56 81 266 205 194 246 203 215 224 234 239 237 238 245 248 246 244 243 241 239 240 239 242 243 242 239 241 244 246 249 251 252 253 254 255
125 190 152 135 96 53 107 113 41 307 234 232 352 237 257 263 244 219 242 252 249 246 250 252 251 247 243 239 237 237 236 239 241 237 236 238 241 244 248 251 253 255 256 257
166 205 176 181 161 158 168 153 159 196 205 252 22 239 242 237 270 264 255 250 253 232 244 258 246 236 234 233 232 235 233 234 235 235 236 237 239 242 246 249 251 255 256 255
172 198 11 147 133 141 187 192 163 110 55 36 229 289 290 268 270 266 263 260 249 245 255 271 254 231 222 223 230 227 226 230 233 236 239 238 238 240 244 247 251 250 250 243
180 115 352 139 99 44 175 148 138 111 175 255 274 274 234 281 263 314 270 260 268 251 242 241 245 229 214 210 215 217 223 228 232 233 236 237 238 241 244 247 249 248 243 235
143 98 193 148 208 167 137 181 128 133 170 182 251 258 217 227 270 280 289 270 247 247 224 219 224 221 210 206 209 210 214 218 221 224 225 231 238 246 248 249 246 242 237 230
188 112 144 186 238 196 204 177 176 188 208 241 131 253 225 218 224 238 270 295 219 227 214 212 219 223 221 220 225 223 223 224 228 231 235 237 239 239 239 241 240 237 235 229
174 159 91 41 325 184 214 213 189 103 92 198 156 258 204 209 231 267 261 235 226 206 197 208 220 221 220 216 215 216 218 219 217 221 223 226 231 234 235 233 229 224 221 215
163 128 158 197 215 133 174 187 173 167 180 201 230 220 322 244 229 213 260 217 200 188 201 208 217 213 209 214 218 219 219 222 224 227 230 231 231 232 232 231 227 221 215 214
148 207 122 44 163 161 175 182 184 197 225 194 250 227 212 238 189 211 243 213 210 200 211 212 212 212 215 220 223 223 227 232 235 237 237 236 234 231 227 221 216 213 212 213
39 236 105 6 27 138 170 191 199 212 217 234 246 263 222 224 234 234 223 215 232 230 226 213 211 213 216 214 215 229 237 238 243 246 245 241 235 230 223 219 217 217 214 207
143 124 109 225 156 103 341 217 206 223 215 228 233 237 183 223 238 255 265 274 269 256 245 224 227 245 230 223 233 253 246 245 250 252 245 239 236 229 222 218 218 212 208 213
180 180 131 161 103 199 249 165 203 214 219 223 245 198 191 211 233 239 240 247 258 262 254 246 257 259 237 235 249 258 249 244 246 248 242 238 236 229 223 221 216 209 209 208
143 160 131 150 211 297 271 196 146 167 251 224 235 240 207 228 246 250 243 246 250 254 260 265 273 263 262 268 267 264 257 251 246 243 241 239 236 232 227 220 214 212 211 212
73 161 182 135 211 224 292 188 159 116 266 184 212 221 211 199 231 235 235 239 242 247 258 262 262 264 265 266 268 265 261 256 248 244 243 238 235 232 227 222 218 217 217 216
153 132 206 178 220 261 245 174 155 190 237 192 207 224 223 205 225 244 239 241 246 253 253 255 258 260 259 257 260 261 258 256 255 245 241 237 232 230 228 224 224 221 216 211
172 175 197 199 227 250 158 120 176 229 221 208 190 178 216 235 231 229 232 230 222 222 230 239 250 256 257 256 257 260 261 255 248 242 236 233 229 227 223 221 220 214 215 216
208 187 177 199 211 310 178 194 209 231 194 145 152 134 142 152 199 205 219 222 236 244 249 251 252 252 254 255 256 260 253 245 241 238 231 228 225 224 222 223 220 217 218 219
230 164 190 126 191 198 209 206 219 194 170 167 169 149 145 164 162 157 172 172 188 219 238 250 253 255 258 257 257 253 248 237 235 233 227 225 224 223 222 222 223 224 223 218
181 151 163 278 359 26 243 206 210 188 173 166 153 153 163 162 158 170 163 116 73 81 85 120 175 223 228 229 232 232 225 220 215 217 222 225 227 227 228 229 230 228 227 226
270 172 197 214 198 183 196 203 191 180 171 160 159 148 145 141 144 140 133 117 104 97 88 89 95 95 97 120 151 166 180 200 212 219 224 228 231 232 231 231 230 225 222 222